7QSOG FAGM-FAOR

Flight info

Callsign 7QSOG
Flight time 0h -24m
Altitude 7500
Route EXOBI1A EXOBI Q4 DUKRA DCT VSK
Aircraft C208/L-SABDFGRWY/HU2

Departure

Time 2026-04-25 10:26
Airport Rand Airport (FAGM)

Arrival

Time 2026-04-25 10:02
Airport O.R. Tambo International Airport (FAOR)
Time Latitude Longitude Altitude Speed Heading
2026-04-25 10:02 -26.24045 28.15223 5489 ft 0 kts 195°
2026-04-25 10:15 -26.24046 28.15223 5489 ft 0 kts 195°
2026-04-25 10:19 -26.24047 28.15222 5489 ft 0 kts 196°
2026-04-25 10:20 -26.24052 28.15220 5489 ft 4 kts 201°
2026-04-25 10:20 -26.24073 28.15156 5489 ft 13 kts 264°
2026-04-25 10:20 -26.24126 28.15150 5489 ft 9 kts 158°
2026-04-25 10:20 -26.24163 28.15220 5489 ft 14 kts 88°
2026-04-25 10:21 -26.24162 28.15313 5489 ft 10 kts 86°
2026-04-25 10:21 -26.24162 28.15379 5489 ft 7 kts 90°
2026-04-25 10:21 -26.24160 28.15437 5489 ft 11 kts 86°
2026-04-25 10:21 -26.24123 28.15523 5489 ft 13 kts 85°
2026-04-25 10:22 -26.24133 28.15579 5489 ft 0 kts 127°
2026-04-25 10:23 -26.24146 28.15599 5489 ft 12 kts 123°
2026-04-25 10:23 -26.24167 28.15676 5490 ft 14 kts 130°
2026-04-25 10:23 -26.24194 28.15704 5490 ft 0 kts 135°
2026-04-25 10:24 -26.24197 28.15707 5490 ft 1 kts 135°
2026-04-25 10:25 -26.24218 28.15731 5491 ft 9 kts 132°
2026-04-25 10:25 -26.24244 28.15689 5491 ft 19 kts 271°
2026-04-25 10:25 -26.24249 28.15357 5494 ft 66 kts 269°
2026-04-25 10:25 -26.24266 28.14744 5576 ft 85 kts 272°
2026-04-25 10:26 -26.24293 28.14063 5729 ft 89 kts 277°
2026-04-25 10:26 -26.24224 28.13372 5876 ft 88 kts 297°
2026-04-25 10:26 -26.23893 28.12829 6000 ft 89 kts 312°
2026-04-25 10:26 -26.23483 28.12262 6193 ft 92 kts 315°
2026-04-25 10:27 -26.23068 28.11695 6315 ft 105 kts 316°
2026-04-25 10:27 -26.22551 28.11013 6370 ft 125 kts 316°
2026-04-25 10:27 -26.21963 28.10245 6432 ft 134 kts 315°
2026-04-25 10:27 -26.21331 28.09450 6501 ft 137 kts 317°
2026-04-25 10:28 -26.20695 28.08610 6479 ft 148 kts 310°
2026-04-25 10:28 -26.20112 28.07635 6479 ft 153 kts 307°
2026-04-25 10:28 -26.19409 28.06790 6608 ft 145 kts 334°
2026-04-25 10:28 -26.18484 28.06602 6795 ft 135 kts 12°
2026-04-25 10:29 -26.17688 28.07177 6782 ft 144 kts 53°
2026-04-25 10:29 -26.17399 28.08206 6747 ft 138 kts 74°
2026-04-25 10:29 -26.17290 28.09265 6609 ft 138 kts 83°
2026-04-25 10:29 -26.17290 28.10339 6433 ft 138 kts 86°
2026-04-25 10:30 -26.17320 28.11416 6403 ft 138 kts 85°
2026-04-25 10:30 -26.17285 28.12484 6373 ft 140 kts 78°
2026-04-25 10:30 -26.17163 28.13568 6338 ft 141 kts 79°
2026-04-25 10:30 -26.17015 28.14634 6359 ft 138 kts 79°
2026-04-25 10:31 -26.16894 28.15691 6326 ft 140 kts 74°
2026-04-25 10:31 -26.16744 28.16750 6350 ft 138 kts 79°
2026-04-25 10:31 -26.16674 28.17816 6368 ft 140 kts 82°
2026-04-25 10:31 -26.16656 28.18903 6361 ft 139 kts 86°
2026-04-25 10:32 -26.16697 28.19916 6363 ft 120 kts 87°
2026-04-25 10:32 -26.16729 28.20802 6290 ft 109 kts 87°
2026-04-25 10:32 -26.16752 28.21602 6135 ft 98 kts 78°
2026-04-25 10:32 -26.16552 28.22320 6001 ft 96 kts 59°
2026-04-25 10:33 -26.16163 28.22902 5880 ft 92 kts 34°
2026-04-25 10:33 -26.15611 28.23139 5800 ft 81 kts 14°
2026-04-25 10:33 -26.15057 28.23303 5706 ft 84 kts 17°
2026-04-25 10:33 -26.14505 28.23477 5542 ft 80 kts 15°
2026-04-25 10:34 -26.14025 28.23629 5534 ft 64 kts 14°
2026-04-25 10:34 -26.13581 28.23763 5550 ft 76 kts 15°
2026-04-25 10:34 -26.13001 28.23948 5603 ft 95 kts 16°
2026-04-25 10:34 -26.12280 28.24174 5656 ft 115 kts 15°
2026-04-25 10:35 -26.11527 28.24422 6009 ft 106 kts 17°
2026-04-25 10:35 -26.10818 28.24629 6278 ft 108 kts
2026-04-25 10:35 -26.10110 28.24273 6403 ft 129 kts 317°
2026-04-25 10:35 -26.09687 28.23318 6546 ft 144 kts 289°
2026-04-25 10:36 -26.09614 28.22130 6552 ft 163 kts 262°
2026-04-25 10:36 -26.10248 28.21117 6526 ft 164 kts 216°
2026-04-25 10:36 -26.11308 28.20732 6512 ft 162 kts 189°
2026-04-25 10:36 -26.12388 28.20402 6515 ft 160 kts 203°
2026-04-25 10:37 -26.13341 28.19767 6464 ft 159 kts 225°
2026-04-25 10:37 -26.14021 28.18866 6636 ft 148 kts 240°
2026-04-25 10:37 -26.14596 28.17905 6627 ft 153 kts 240°
2026-04-25 10:37 -26.15029 28.16793 6452 ft 161 kts 258°
2026-04-25 10:38 -26.15374 28.15660 6594 ft 150 kts 253°
2026-04-25 10:38 -26.15774 28.14574 6608 ft 150 kts 256°
2026-04-25 10:38 -26.15986 28.13453 6647 ft 149 kts 260°
2026-04-25 10:38 -26.16543 28.12431 6569 ft 161 kts 230°
2026-04-25 10:39 -26.17228 28.11539 6729 ft 147 kts 236°
2026-04-25 10:39 -26.17891 28.10639 6679 ft 155 kts 232°
2026-04-25 10:39 -26.18520 28.09698 6539 ft 143 kts 234°
2026-04-25 10:39 -26.19169 28.08933 6461 ft 130 kts 220°
2026-04-25 10:40 -26.19955 28.08541 6407 ft 122 kts 188°
2026-04-25 10:40 -26.20844 28.08633 6296 ft 138 kts 155°
2026-04-25 10:40 -26.21603 28.09231 6349 ft 136 kts 131°
2026-04-25 10:40 -26.22284 28.10005 6337 ft 143 kts 127°
2026-04-25 10:41 -26.22946 28.10853 6349 ft 147 kts 124°
2026-04-25 10:41 -26.23579 28.11745 6363 ft 147 kts 121°
2026-04-25 10:41 -26.24211 28.12602 6338 ft 141 kts 134°
2026-04-25 10:41 -26.25074 28.13127 6256 ft 143 kts 151°
2026-04-25 10:42 -26.25929 28.13557 6194 ft 126 kts 153°
2026-04-25 10:42 -26.26612 28.14082 6062 ft 117 kts 119°
2026-04-25 10:42 -26.26795 28.14879 5988 ft 101 kts 69°
2026-04-25 10:42 -26.26475 28.15524 5918 ft 88 kts 52°
2026-04-25 10:43 -26.26003 28.15907 5717 ft 83 kts 11°
2026-04-25 10:43 -26.25502 28.15696 5689 ft 77 kts 344°
2026-04-25 10:43 -26.24998 28.15464 5582 ft 83 kts 338°
2026-04-25 10:43 -26.24464 28.15215 5494 ft 77 kts 339°
2026-04-25 10:44 -26.24097 28.15099 5490 ft 17 kts 355°
2026-04-25 10:44 -26.24074 28.15215 5489 ft 23 kts 80°
2026-04-25 10:44 -26.24034 28.15367 5489 ft 20 kts 25°
2026-04-25 10:44 -26.24015 28.15341 5489 ft 0 kts 260°